• In Portugal
  • List of Countries
  • For 7 days
  • Water Temperature
  • Satellite Maps
  • Weather Map
  • Weather Widgets
  • user-avatar
    Login

    Hourly Weather Tuzla

    Today, 11 December, Monday

    Time Temperature Precipitation Wind Pressure Humidity
    00:00 +1°C° 0 mm 5 mps 716 mmHg 74%
    01:00 +2°C° 0 mm 5 mps 716 mmHg 74%
    02:00 +3°C° 0 mm 6 mps 715 mmHg 74%
    03:00 +3°C° 0 mm 6 mps 715 mmHg 74%
    04:00 +4°C° 0 mm 6 mps 715 mmHg 73%
    05:00 +4°C° 0 mm 6 mps 715 mmHg 75%
    06:00 +4°C° 0 mm 6 mps 715 mmHg 77%
    07:00 +6°C° 0 mm 5 mps 714 mmHg 78%
    08:00 +6°C° 0 mm 5 mps 715 mmHg 77%
    09:00 +7°C° 0 mm 5 mps 715 mmHg 76%
    10:00 +8°C° 0 mm 5 mps 715 mmHg 74%
    11:00 +9°C° 0 mm 6 mps 715 mmHg 73%
    12:00 +9°C° 0 mm 6 mps 715 mmHg 71%
    13:00 +10°C° 0 mm 7 mps 715 mmHg 70%
    14:00 +9°C° 0 mm 7 mps 715 mmHg 71%
    15:00 +9°C° 0 mm 6 mps 715 mmHg 72%
    16:00 +8°C° 0 mm 6 mps 715 mmHg 73%
    17:00 +8°C° 0 mm 6 mps 716 mmHg 73%
    18:00 +9°C° 0 mm 7 mps 716 mmHg 73%
    19:00 +9°C° 0 mm 7 mps 716 mmHg 73%
    20:00 +9°C° 0 mm 7 mps 716 mmHg 73%
    21:00 +9°C° 0 mm 7 mps 716 mmHg 72%
    22:00 +9°C° 0 mm 7 mps 716 mmHg 72%
    23:00 +10°C° 0 mm 7 mps 717 mmHg 72%

    Tomorrow, 12 December, Tuesday

    Time Temperature Precipitation Wind Pressure Humidity
    00:00 +10°C° 0 mm 7 mps 717 mmHg 72%
    01:00 +10°C° 0 mm 7 mps 717 mmHg 72%
    02:00 +10°C° 0 mm 7 mps 717 mmHg 72%
    03:00 +10°C° 0 mm 7 mps 717 mmHg 72%
    04:00 +10°C° 0 mm 7 mps 717 mmHg 73%
    05:00 +10°C° 0 mm 7 mps 717 mmHg 73%
    06:00 +10°C° 0 mm 7 mps 718 mmHg 73%
    07:00 +9°C° 0 mm 6 mps 718 mmHg 73%
    08:00 +10°C° 0 mm 6 mps 718 mmHg 72%
    09:00 +11°C° 0 mm 6 mps 719 mmHg 70%
    10:00 +13°C° 0 mm 6 mps 719 mmHg 68%
    11:00 +13°C° 0 mm 6 mps 719 mmHg 67%
    12:00 +13°C° 0 mm 6 mps 719 mmHg 65%
    13:00 +14°C° 0 mm 6 mps 719 mmHg 63%
    14:00 +13°C° 0 mm 5 mps 720 mmHg 67%
    15:00 +12°C° 0 mm 5 mps 720 mmHg 71%
    16:00 +11°C° 0 mm 4 mps 720 mmHg 75%
    17:00 +11°C° 0 mm 4 mps 720 mmHg 75%
    18:00 +11°C° 0 mm 4 mps 720 mmHg 76%
    19:00 +10°C° 0 mm 4 mps 720 mmHg 77%
    20:00 +10°C° 0 mm 4 mps 721 mmHg 77%
    21:00 +10°C° 0 mm 4 mps 721 mmHg 77%
    22:00 +10°C° 0 mm 4 mps 721 mmHg 77%
    23:00 +10°C° 0 mm 4 mps 721 mmHg 77%

    Day after tomorrow, 13 December, Wednesday

    Time Temperature Precipitation Wind Pressure Humidity
    00:00 +10°C° 0 mm 4 mps 721 mmHg 77%
    01:00 +10°C° 0 mm 4 mps 721 mmHg 77%
    02:00 +8°C° 0.4 mm 4 mps 721 mmHg 80%
    03:00 +9°C° 0.4 mm 3 mps 722 mmHg 83%
    04:00 +8°C° 0.4 mm 3 mps 722 mmHg 86%
    05:00 +7°C° 1.1 mm 3 mps 722 mmHg 88%
    06:00 +6°C° 1.1 mm 2 mps 722 mmHg 90%
    07:00 +5°C° 1.1 mm 2 mps 723 mmHg 91%
    08:00 +5°C° 1.6 mm 2 mps 723 mmHg 91%
    09:00 +4°C° 1.6 mm 2 mps 723 mmHg 91%
    10:00 +4°C° 1.6 mm 2 mps 724 mmHg 90%
    11:00 +5°C° 1.3 mm 1 mps 724 mmHg 90%
    12:00 +4°C° 1.3 mm 1 mps 723 mmHg 90%
    13:00 +4°C° 1.3 mm 1 mps 723 mmHg 90%
    14:00 +4°C° 0.8 mm 1 mps 723 mmHg 90%
    15:00 +4°C° 0.8 mm 1 mps 723 mmHg 91%
    16:00 +4°C° 0.8 mm 1 mps 723 mmHg 91%
    17:00 +4°C° 0.2 mm 1 mps 722 mmHg 91%
    18:00 +4°C° 0.2 mm 1 mps 722 mmHg 91%
    19:00 +4°C° 0.2 mm 1 mps 722 mmHg 91%
    20:00 +4°C° 0 mm 1 mps 722 mmHg 91%
    21:00 +3°C° 0 mm 1 mps 722 mmHg 91%
    22:00 +3°C° 0 mm 1 mps 722 mmHg 90%
    23:00 +3°C° 0 mm 1 mps 721 mmHg 90%

    14 December, Thursday

    Time Temperature Precipitation Wind Pressure Humidity
    00:00 +3°C° 0 mm 1 mps 721 mmHg 90%
    01:00 +2°C° 0 mm 2 mps 721 mmHg 89%
    02:00 +1°C° 0 mm 2 mps 721 mmHg 88%
    03:00 +1°C° 0 mm 2 mps 721 mmHg 88%
    04:00 +1°C° 0 mm 2 mps 721 mmHg 87%
    05:00 +1°C° 0 mm 2 mps 721 mmHg 86%
    06:00 +1°C° 0 mm 2 mps 721 mmHg 85%
    07:00 +1°C° 0 mm 3 mps 721 mmHg 84%
    08:00 +2°C° 0 mm 3 mps 721 mmHg 82%
    09:00 +3°C° 0 mm 3 mps 721 mmHg 79%
    10:00 +5°C° 0 mm 3 mps 721 mmHg 76%
    11:00 +7°C° 0 mm 3 mps 720 mmHg 75%
    12:00 +7°C° 0 mm 4 mps 720 mmHg 74%
    13:00 +7°C° 0 mm 4 mps 720 mmHg 73%
    14:00 +7°C° 0 mm 4 mps 719 mmHg 75%
    15:00 +6°C° 0 mm 4 mps 719 mmHg 77%
    16:00 +5°C° 0 mm 4 mps 719 mmHg 80%
    17:00 +5°C° 0 mm 4 mps 719 mmHg 80%
    18:00 +5°C° 0 mm 4 mps 719 mmHg 80%
    19:00 +5°C° 0 mm 4 mps 719 mmHg 80%
    20:00 +5°C° 0 mm 4 mps 718 mmHg 80%
    21:00 +5°C° 0 mm 4 mps 718 mmHg 80%
    22:00 +6°C° 0 mm 4 mps 717 mmHg 80%
    23:00 +6°C° 0 mm 4 mps 717 mmHg 81%

    15 December, Friday

    Time Temperature Precipitation Wind Pressure Humidity
    00:00 +6°C° 0 mm 4 mps 717 mmHg 82%
    01:00 +6°C° 0 mm 4 mps 716 mmHg 82%
    02:00 +6°C° 0 mm 4 mps 716 mmHg 83%
    03:00 +6°C° 0 mm 4 mps 716 mmHg 83%
    04:00 +6°C° 0 mm 4 mps 715 mmHg 83%
    05:00 +6°C° 0 mm 4 mps 715 mmHg 83%
    06:00 +6°C° 0 mm 4 mps 715 mmHg 83%
    07:00 +6°C° 0 mm 4 mps 715 mmHg 83%
    08:00 +7°C° 0 mm 4 mps 715 mmHg 81%
    09:00 +8°C° 0 mm 4 mps 715 mmHg 78%
    10:00 +10°C° 0 mm 4 mps 715 mmHg 76%
    11:00 +10°C° 0.1 mm 3 mps 715 mmHg 77%
    12:00 +10°C° 0.1 mm 3 mps 714 mmHg 77%
    13:00 +10°C° 0.1 mm 2 mps 714 mmHg 78%
    14:00 +10°C° 0.4 mm 2 mps 713 mmHg 81%
    15:00 +9°C° 0.4 mm 2 mps 713 mmHg 84%
    16:00 +8°C° 0.4 mm 2 mps 712 mmHg 88%
    17:00 +8°C° 0.4 mm 2 mps 712 mmHg 87%
    18:00 +8°C° 0.4 mm 3 mps 711 mmHg 87%
    19:00 +8°C° 0.4 mm 3 mps 711 mmHg 87%
    20:00 +8°C° 0.2 mm 4 mps 711 mmHg 84%
    21:00 +8°C° 0.2 mm 4 mps 711 mmHg 82%
    22:00 +9°C° 0.2 mm 5 mps 711 mmHg 80%
    23:00 +8°C° 0.3 mm 5 mps 711 mmHg 81%

    16 December, Saturday

    Time Temperature Precipitation Wind Pressure Humidity
    00:00 +8°C° 0.3 mm 5 mps 711 mmHg 82%
    01:00 +8°C° 0.3 mm 5 mps 710 mmHg 82%
    02:00 +7°C° 0.8 mm 4 mps 710 mmHg 84%
    03:00 +7°C° 0.8 mm 4 mps 710 mmHg 86%
    04:00 +6°C° 0.8 mm 4 mps 710 mmHg 88%
    05:00 +6°C° 1.6 mm 4 mps 710 mmHg 89%
    06:00 +5°C° 1.6 mm 3 mps 710 mmHg 89%
    07:00 +4°C° 1.6 mm 3 mps 710 mmHg 90%
    08:00 +4°C° 1.4 mm 3 mps 710 mmHg 90%
    09:00 +4°C° 1.4 mm 3 mps 710 mmHg 90%
    10:00 +5°C° 1.4 mm 2 mps 710 mmHg 90%
    11:00 +4°C° 1.5 mm 3 mps 710 mmHg 90%
    12:00 +4°C° 1.5 mm 3 mps 710 mmHg 91%
    13:00 +4°C° 1.5 mm 3 mps 710 mmHg 92%
    14:00 +3°C° 1.5 mm 3 mps 711 mmHg 93%
    15:00 +3°C° 1.5 mm 2 mps 711 mmHg 93%
    16:00 +2°C° 1.5 mm 2 mps 712 mmHg 94%
    17:00 +2°C° 1 mm 2 mps 712 mmHg 94%
    18:00 +1°C° 1 mm 2 mps 713 mmHg 94%
    19:00 +1°C° 1 mm 2 mps 713 mmHg 95%
    20:00 +1°C° 1 mm 2 mps 714 mmHg 95%
    21:00 -1°C° 1 mm 3 mps 714 mmHg 94%
    22:00 -1°C° 1 mm 3 mps 714 mmHg 94%
    23:00 -1°C° 0.9 mm 3 mps 714 mmHg 95%
    Show more